This demonstration page uses our WeatherBlox Daily Observations layout. Learn more.

Left ArrowRight Arrow

39.92423, -83.80882

Hourly Observations for March 23, 2021

Temp ( °F °C ) Dew Point ( °F °C ) Humidity (%) Winds ( mph kmh ) Pressure ( in mb ) Visibility ( mi km ) Precip ( " mm )
12:56 am 00:56 Clear 43 6.1 34 1.1 71 71 E 3 6 30.09 1019 10 16 N/A
1:56 am 01:56 Clear 38 3.3 33 0.6 83 83 E 6 9 30.09 1019 10 16 N/A
2:56 am 02:56 Clear 39 3.9 31 -0.6 73 73 E 7 11 30.09 1019 10 16 N/A
3:56 am 03:56 Clear 41 5 30 -1.1 65 65 E 8 13 30.08 1019 10 16 N/A
4:56 am 04:56 Clear 47 8.3 31 -0.6 54 54 SE 8 13 30.06 1018 10 16 N/A
5:56 am 05:56 Clear 46 7.8 31 -0.6 56 56 ESE 8 13 30.06 1018 10 16 N/A
6:56 am 06:56 Clear 45 7.2 33 0.6 63 63 ESE 9 15 30.06 1018 10 16 N/A
7:56 am 07:56 Sunny 47 8.3 35 1.7 63 63 SE 9 15 30.07 1018 10 16 N/A
8:56 am 08:56 Cloudy 49 9.4 37 2.8 64 64 SE 12 19 30.09 1019 10 16 N/A
9:56 am 09:56 Mostly Sunny 52 11.1 39 3.9 61 61 SSE 9 15 30.08 1019 10 16 N/A
10:56 am 10:56 Sunny 59 15 42 5.6 54 54 SSE 17 28 30.08 1019 10 16 N/A
11:56 am 11:56 Sunny 63 17.2 43 6.1 48 48 S 10 17 30.06 1018 10 16 N/A
12:56 pm 12:56 Partly Cloudy 62 16.7 43 6.1 50 50 SSE 10 17 30.04 1017 10 16 N/A
1:56 pm 13:56 Mostly Cloudy 65 18.3 43 6.1 45 45 SSE 10 17 30.01 1016 10 16 N/A
2:56 pm 14:56 Mostly Cloudy 67 19.4 43 6.1 42 42 SSE 13 20 30.00 1016 10 16 N/A
3:56 pm 15:56 Mostly Sunny 68 20 43 6.1 40 40 SSE 12 19 29.96 1015 10 16 N/A
4:56 pm 16:56 Sunny 68 20 42 5.6 39 39 SSE 14 22 29.93 1014 10 16 N/A
5:56 pm 17:56 Sunny 66 18.9 42 5.6 42 42 SE 12 19 29.92 1013 10 16 N/A
6:56 pm 18:56 Mostly Sunny 64 17.8 42 5.6 45 45 SE 10 17 29.91 1013 10 16 N/A
7:56 pm 19:56 Cloudy 60 15.6 43 6.1 53 53 ESE 9 15 29.90 1013 10 16 N/A
8:56 pm 20:56 Cloudy 59 15 43 6.1 56 56 ESE 9 15 29.89 1012 10 16 N/A
9:56 pm 21:56 Cloudy 60 15.6 43 6.1 53 53 ESE 13 20 29.88 1012 10 16 N/A
10:56 pm 22:56 Cloudy 61 16.1 44 6.7 54 54 SE 15 24 29.87 1012 10 16 N/A
11:56 pm 23:56 Cloudy 60 15.6 46 7.8 60 60 SE 17 28 29.87 1011 10 16 N/A

Powered by AerisWeather